Flag for Germany Weather past 2 weeks in Güstrow, Mecklenburg-Western Pomerania, Germany

Now
52 °F

Light rain. Fog.


Feels Like: 51 °F
Forecast: 41 / 46 °F
Wind: 5 mph from Southwest

Location: Laage

Current Time: Apr 26, 2015 at 2:08:02 AM

Latest Report: Apr 26, 2015 at 1:20 AM


Visibility: 2 mi

Pressure: 29.71 "Hg

Humidity: 100%

Dew point: 52 °F

Location of GüstrowLocation

Historic Weather in Güstrow — Graph

°F

Güstrow temperature yesterday

Maximum temperature yesterday: 61 °F (at 10:20 AM)
Minimum temperature yesterday: 43 °F (at 2:20 AM)
Average temperature yesterday: 53 °F

Past Weeks' High & Low Weather Summary

 TemperatureHumidityPressure
High68 °F (Apr 11, 2:20 PM)100% (Apr 18, 2:20 AM)30.33 "Hg (Apr 18, 2:20 AM)
Low32 °F (Apr 18, 5:20 AM)30% (Apr 15, 4:52 PM)29.68 "Hg (Apr 25, 4:55 PM)
Average49 °F71%30.08 "Hg
* Reported Apr 11 12:20 AM — Apr 26 12:20 AM, Güstrow, Weather by CustomWeather, © 2015

Note: Actual official high and low records may vary slightly from our data, if they occured in-between our weather recording intervals... More about our weather records

Advertising

Güstrow weather history for previous 24 hours

 ConditionsComfort  
Time TempWeatherWind HumidityBarometerVisibility
12:20 AM
Sun, Apr 26
52 °FFog.5 mph94%29.71 "Hg1 mi
11:20 PM
Sat, Apr 25
52 °FFog.2 mph94%29.71 "Hg2 mi
10:48 PM52 °FFog.3 mph94%29.71 "Hg2 mi
10:20 PM52 °FFog.5 mph94%29.71 "Hg2 mi
9:20 PM52 °FFog.5 mph100%29.71 "Hg2 mi
8:20 PM54 °FLight rain. Fog.7 mph94%29.71 "Hg2 mi
7:20 PM54 °FLight rain. Fog.9 mph94%29.68 "Hg3 mi
6:20 PM55 °FLight rain. Partly sunny.5 mph94%29.68 "Hg4 mi
5:20 PM57 °FPartly sunny.1 mph82%29.68 "HgN/A
4:55 PM55 °FPartly sunny.1 mph88%29.68 "Hg6 mi
4:20 PM55 °FRain. Fog.7 mph88%29.71 "Hg3 mi
3:20 PM61 °FPartly sunny.7 mph72%29.71 "HgN/A
2:20 PM61 °FScattered showers. Partly sunny.7 mph68%29.71 "Hg6 mi
1:20 PM59 °FBroken clouds.5 mph68%29.71 "HgN/A
12:20 PM57 °FPartly sunny.5 mph72%29.74 "Hg6 mi
11:20 AM59 °FLight rain. Partly sunny.7 mph59%29.74 "Hg6 mi
10:20 AM61 °FBroken clouds.13 mph55%29.74 "Hg6 mi
9:20 AM59 °FPartly sunny.8 mph59%29.71 "Hg6 mi
8:20 AM52 °FPartly sunny.6 mph72%29.71 "Hg4 mi
7:20 AM50 °FPartly sunny.5 mph71%29.74 "Hg4 mi
6:20 AM48 °FPassing clouds.5 mph71%29.74 "Hg5 mi
5:20 AM46 °FPassing clouds.6 mph76%29.74 "Hg6 mi
4:20 AM45 °FQuite cool.5 mph81%29.74 "HgN/A
3:20 AM46 °FCool.5 mph76%29.77 "HgN/A
2:20 AM43 °FQuite cool.3 mph93%29.77 "HgN/A
Weather by CustomWeather, © 2015

See weather overviewHow to use our weather pages